This is the latest recevied weather packets stored in our database for station/object AD0YN. If no packets are shown the sender has not sent any weather packets the latest 10 day(s).
| Time | Temp. | Humidity | Pressure | Rain* | Wind** | Luminosity | Snow |
|---|---|---|---|---|---|---|---|
| 1777298817 | 16.11° C | 96% | 1000.4 hPa | 0 mm | - | 49 W/m² | - |
| 1777298513 | 16.11° C | 97% | 1000.3 hPa | 0 mm | - | 44 W/m² | - |
| 1777298209 | 16.11° C | 97% | 1000.1 hPa | 0 mm | - | 41 W/m² | - |
| 1777297905 | 16.11° C | 97% | 999.9 hPa | 0 mm | - | 32 W/m² | - |
| 1777297602 | 16.11° C | 97% | 999.9 hPa | 0 mm | - | 27 W/m² | - |
| 1777297299 | 16.11° C | 97% | 999.9 hPa | 0 mm | - | 22 W/m² | - |
| 1777296997 | 16.11° C | 97% | 999.6 hPa | 0 mm | - | 17 W/m² | - |
| 1777296693 | 16.11° C | 97% | 999.4 hPa | 0 mm | - | 12 W/m² | - |
| 1777296372 | 16.11° C | 97% | 999 hPa | 0 mm | - | 9 W/m² | - |
| 1777296068 | 16.11° C | 97% | 999.8 hPa | 0 mm | - | 6 W/m² | - |
| 1777295766 | 16.11° C | 97% | 1000.2 hPa | 0 mm | - | 5 W/m² | - |
| 1777295463 | 16.11° C | 97% | 1000.1 hPa | 0 mm | - | 5 W/m² | - |
| 1777295161 | 16.11° C | 97% | 999.6 hPa | 0 mm | - | 5 W/m² | - |
| 1777294858 | 16.11° C | 97% | 998.5 hPa | 1.78 mm | - | 5 W/m² | - |
| 1777294558 | 16.11° C | 97% | 999.4 hPa | 1.78 mm | - | 2 W/m² | - |
| 1777294254 | 16.11° C | 97% | 1000.7 hPa | 1.78 mm | - | 3 W/m² | - |
| 1777293952 | 16.11° C | 97% | 1000.5 hPa | 3.05 mm | - | 3 W/m² | - |
| 1777293648 | 16.11° C | 97% | 999.5 hPa | 3.05 mm | - | 2 W/m² | - |
| 1777293343 | 16.11° C | 97% | 1000.2 hPa | 4.83 mm | - | 2 W/m² | - |
| 1777293039 | 16.11° C | 97% | 1000.2 hPa | 3.05 mm | - | 1 W/m² | - |
| 1777292738 | 16.11° C | 97% | 1000.8 hPa | 4.32 mm | - | 1 W/m² | - |
| 1777292434 | 15.56° C | 97% | 1000.3 hPa | 6.6 mm | - | 1 W/m² | - |
| 1777292131 | 15.56° C | 97% | 1000.9 hPa | 4.83 mm | - | 1 W/m² | - |
| 1777291827 | 15.56° C | 97% | 1001.1 hPa | 4.83 mm | - | 1 W/m² | - |
| 1777291524 | 15.56° C | 97% | 1001.3 hPa | 4.83 mm | - | 0 W/m² | - |
* Rain latest hour (hover to see other rain measurements)
** Current wind speed in m/s (hover to see current wind gust speed)